Regional Weather Roundup
Issued by NWS San Angelo, TX

Home | Current Version | Previous Version | Text Only | Print | Product List | Glossary On
Versions: 1 2 3 4 5 6 7 8 9 10 11 12 13 14 15 16 17 18 19 20 21 22 23 24 25 26 27 28 29 30 31 32 33 34 35 36 37 38 39 40 41 42 43 44 45 46 47 48 49 50
633
ASUS44 KSJT 081811
RWRSJT
WEST CENTRAL TEXAS REGIONAL WEATHER ROUNDUP
NATIONAL WEATHER SERVICE SAN ANGELO TX
1200 PM CST MON FEB 08 2016

NOTE: "FAIR" INDICATES FEW OR NO CLOUDS BELOW 12,000 FEET WITH NO
SIGNIFICANT WEATHER AND/OR OBSTRUCTIONS TO VISIBILITY.

TXZ049-054-064>066-071>073-076>078-098-099-113-114-127-128-139-140-
154-155-168>170-081900
...LOCATIONS ACROSS WEST CENTRAL TEXAS...

CITY           SKY/WX    TMP DP  RH WIND       PRES   REMARKS
SAN ANGELO     SUNNY     52   5  15 N13       30.50F
ABILENE        SUNNY     50  10  20 N16       30.46F
DYESS AFB      SUNNY     51  11  20 N14G24    30.46F
JUNCTION       MOSUNNY   54   7  15 N16       30.47F
SWEETWATER     SUNNY     50   4  15 NW16      30.50F
BROWNWOOD      SUNNY     52   9  17 NW17G23   30.45F
COLEMAN        CLEAR     53   9  17 NW15      30.46F
SONORA         MOSUNNY   50   7  17 N12       30.54F
OZONA          FAIR      52   9  17 N9G17     30.53F
BRADY          NOT AVBL
$$

TEXAS PANHANDLE/OKLAHOMA PANHANDLE

CITY           SKY/WX    TMP DP  RH WIND       PRES   REMARKS
AMARILLO       SUNNY     48  15  26 NW17G26   30.46F
BORGER         SUNNY     48  10  21 N20G30    30.45F
CANADIAN       SUNNY     48   1  15 N25G38    30.41F WCI  40
DALHART        SUNNY     44  18  35 W9        30.47F WCI  39
DUMAS          CLEAR     47  16  29 NW14G21   30.45F
GUYMON         NOT AVBL
HEREFORD       NOT AVBL
PAMPA          CLEAR     48  10  21 N33G44    30.41F WCI  39
PERRYTON       SUNNY     47   9  21 N29       30.42F WCI  38
$$

SOUTHERN PANHANDLE/SOUTH PLAINS/ROLLING PLAINS

CITY           SKY/WX    TMP DP  RH WIND       PRES   REMARKS
LUBBOCK        MOSUNNY   50  10  20 N16       30.47F
SNYDER           N/A     49   7  18 N12G20    30.49F
CHILDRESS      SUNNY     53  -1  11 N23G32    30.43F
SEMINOLE       CLEAR     46   7  20 NE5       30.51F
$$

PERMIAN BASIN

CITY           SKY/WX    TMP DP  RH WIND       PRES   REMARKS
MIDLAND        SUNNY     49   7  18 NE8       30.51F
ODESSA         SUNNY     47   6  18 E6        30.51F
WINK           SUNNY     47   6  18 E5        30.53F
$$

FAR WEST/SOUTHWEST MOUNTAINS/TRANS PECOS

CITY           SKY/WX    TMP DP  RH WIND       PRES   REMARKS
ALPINE         MOCLDY    42  13  30 NE9       30.56F WCI  37
DRYDEN           N/A     54   8  16 NE7G17    30.51F
EL PASO        PTSUNNY   49  18  29 E3        30.45F
FORT STOCKTON  SUNNY     45   8  22 CALM      30.54F
GUADALUPE PASS SUNNY     37   7  28 E20       30.47F WCI  27
MARFA          SUNNY     43  13  29 NE14      30.49F WCI  36
PECOS          CLEAR     46  10  23 CALM      30.55F
$$

DALLAS/FORT WORTH METROPLEX

CITY           SKY/WX    TMP DP  RH WIND       PRES   REMARKS
DFW AIRPORT    MOSUNNY   53  12  19 NW29G36   30.33F
FTW MEACHAM    SUNNY     54  17  23 NW21G31   30.36F
DAL-EXECUTIVE  SUNNY     52  14  22 NW25G38   30.33F
GRAND PRAIRIE  SUNNY     52  12  20 NW15G23   30.37
ADDISON        NOT AVBL
MESQUITE       CLEAR     52  14  22 NW25G33   30.34F
LANCASTER      CLEAR     52  11  19 NW25G33   30.36F
$$

NORTH CENTRAL TEXAS

CITY           SKY/WX    TMP DP  RH WIND       PRES   REMARKS
SHRMAN/DENISON CLEAR     51  13  22 NW25G37   30.31F
GAINESVILLE    SUNNY     50  12  22 NW23G33   30.35F
BRIDGEPORT     CLEAR     50  19  29 NW15G30   30.40F
DENTON         SUNNY     51  15  23 NW22G32   30.35F
WAXAHACHIE     CLEAR     51  18  26 NW23G31   30.36F
GRANBURY       CLEAR     53  15  21 NW17G29   30.41F
$$

WESTERN NORTH TEXAS

CITY           SKY/WX    TMP DP  RH WIND       PRES   REMARKS
WICHITA FALLS  SUNNY     51  11  20 N26G36    30.39F
VERNON         CLEAR     51  -1  11 NW22G36   30.42F
BRECKENRIDGE   CLEAR     53   9  17 N15G25    30.43F
COMANCHE       SUNNY     53  16  23 NW17G23   30.43F
$$

CENTRAL AND SOUTH CENTRAL TEXAS

CITY           SKY/WX    TMP DP  RH WIND       PRES   REMARKS
AUSTIN/BERGSTM CLOUDY    59  14  17 N14       30.41F
WACO           SUNNY     54  15  21 NW20      30.39F
HILLSBORO      CLEAR     53  14  21 NW23G32   30.37F
TEMPLE         SUNNY     55  16  21 NW18G29   30.40F
KILLEEN-GRAY   SUNNY     54  13  19 N17G24    30.39F
FORT HOOD      MOSUNNY   55  13  19 NW16      30.38F
GEORGETOWN     SUNNY     55  19  24 NW16      30.41
LAGO VISTA     FAIR      56  12  17 N10G21    30.41F
SAN MARCOS     SUNNY     57  18  21 N21       30.44F
NEW BRAUNFELS  CLOUDY    61  13  15 N15       30.43S
RANDOLPH AFB   MOSUNNY   59  13  16 N17       30.43S
SAN ANTONIO    PTSUNNY   59  13  16 N14G22    30.44S
STINSON        MOSUNNY   63  14  15 N14       30.43F
PLEASANTON     NOT AVBL
LA GRANGE      MOSUNNY   59  20  21 NW15      30.38F
GIDDINGS         N/A    N/A N/A N/A MISG        N/A
$$

EAST TEXAS

CITY           SKY/WX    TMP DP  RH WIND       PRES   REMARKS
PARIS          SUNNY     50  18  27 NW24G37   30.23F
CLARKSVILLE    NOT AVBL
TYLER          SUNNY     53  14  21 NW28G38   30.27F
LONGVIEW       SUNNY     51  15  23 NW24G37   30.23F
PALESTINE      CLEAR     54  17  23 NW12G26   30.33F
NACOGDOCHES    SUNNY     54  16  22 NW25G33   30.26F
$$

TEXAS HILL COUNTRY AND EDWARDS PLATEAU

CITY           SKY/WX    TMP DP  RH WIND       PRES   REMARKS
LLANO          CLEAR     55  12  18 N16       30.47F
HORSESHOE BAY  FAIR      55  15  21 N12G18    30.44F
KERRVILLE      MOSUNNY   53   9  17 N14       30.47R
FREDERICKSBRG  SUNNY     53  10  17 N12G18    30.44F
ROCKSPRINGS    PTCLDY    50  12  22 N8        30.50F
HONDO          MOSUNNY   60  14  16 N17       30.49R
UVALDE         CLOUDY    58  16  19 NW9       30.49S
DEL RIO        MOSUNNY   56  12  17 NW9       30.52F
$$

SOUTHEAST TEXAS

CITY           SKY/WX    TMP DP  RH WIND       PRES   REMARKS
COLLEGE STN    SUNNY     56  14  19 NW21G35   30.36F
CALDWELL       CLEAR     55  14  19 NW16G29   30.41F
CROCKETT       CLEAR     54  14  20 NW16G29   30.34F
BRENHAM        SUNNY     58  20  23 NW21G26   30.38F
HUNTSVILLE     SUNNY     56  14  19 NW21G32   30.32F
CONROE         SUNNY     57  11  16 NW24G35   30.32F
HOUSTON BUSH   MOSUNNY   60  15  17 N18G24    30.32F
HOUSTON HOBBY  MOSUNNY   61  12  14 NW20G25   30.32F
PERLAND        SUNNY     61  11  14 NW16      30.34F
WHARTON        CLEAR     61  21  21 NW17G24   30.38F
$$

THE UPPER TEXAS COAST

CITY           SKY/WX    TMP DP  RH WIND       PRES   REMARKS
ORANGE         CLEAR     58   5  12 NW12G26   30.25F
PORT ARTHUR    SUNNY     61  19  19 NW17      30.25F
GALVESTON      SUNNY     60  27  28 N13       30.32F
ANGLETON       SUNNY     61  20  20 N14G23    30.34F
BAY CITY       CLEAR     60  23  23 N16G26    30.36F
$$

TEXAS COASTAL BEND, RIO GRANDE PLAINS DEEP SOUTH TEXAS

CITY           SKY/WX    TMP DP  RH WIND       PRES   REMARKS
VICTORIA       SUNNY     63  22  20 N16       30.39F
BEEVILLE       FAIR      64  24  21 N20G25    30.41S
ROCKPORT       MOSUNNY   67  24  19 N21       30.38F
PORT ARANSAS   PTCLDY    62  30  30 N22G28    30.38S
PORT LAVACA    CLEAR     62  26  24 N15G23    30.38F
CORPUS CHRISTI PTSUNNY   65  22  19 N24       30.39S
KINGSVILLE NAS PTSUNNY   65  27  23 N20G25    30.40S
COTULLA        SUNNY     65  17  15 N14       30.46S
LAREDO         MOSUNNY   63  22  20 N15       30.46F
BROWNSVILLE    MOSUNNY   70  52  52 N12       30.33S
PORT ISABEL    CLOUDY    63  49  60 N20       30.34R
HEBBRONVILLE   NOT AVBL
MCALLEN        MOSUNNY   69  37  30 N22       30.37S
WESLACO        MOSUNNY   65  41  41 N13G21    30.35S
FALFURRIAS     CLOUDY    64  22  20 NE17G23   30.40F
EDINBURG       CLEAR     67  36  31 N17G23    30.38S
$$




USA.gov is the U.S. government's official web portal to all federal, state and local government web resources and services.